Joplin, MO

4:02 PM CST on December 07, 2019 (GMT -0600)
Joplin Regional

Weather History for KJLN - June, 2019

Change the Weather History Date:

Thursday, June 13, 2019

  Actual Average Record
Temperature  
Mean Temperature 64 °F 75 °F  
Max Temperature 78 °F 85 °F 102 °F (1953)
Min Temperature 49 °F 65 °F 48 °F (1985)
Degree Days  
Heating Degree Days 2 0  
Month to date heating degree days 1 2  
Since 1 June heating degree days 1 2  
Since 1 July heating degree days 4416 4071  
Cooling Degree Days 0 10  
Month to date cooling degree days 88 110  
Year to date cooling degree days 241 290  
Since 1 June cooling degree days 88 110  
Growing Degree Days 14 (Base 50)    
Moisture  
Dew Point 51 °F    
Average Humidity 64    
Maximum Humidity 100    
Minimum Humidity 36    
Precipitation  
Precipitation 0.00 in 0.20 in 4.27 in (1964)
Month to date precipitation 0.97 2.63  
Year to date precipitation 29.12 20.58  
Sea Level Pressure  
Sea Level Pressure 30.10 in    
Wind  
Wind Speed 2 mph ()    
Max Wind Speed 10 mph    
Max Gust Speed 15 mph    
Visibility 9.6 miles    
Events Fog    
T = Trace of Precipitation, MM = Missing Value Source: Averaged Metar Reports

Daily Weather History Graph

Daily Weather History Graph

Search for Another Location

Airport or City:

Astronomy

Jun. 13, 2019 Rise Set
Actual Time 5:57 AM CDT 8:38 PM CDT
Civil Twilight 5:26 AM CDT 9:09 PM CDT
Nautical Twilight 4:48 AM CDT 9:48 PM CDT
Astronomical Twilight 4:04 AM CDT 10:31 PM CDT
Moon 4:59 PM CDT (6/13) 3:36 AM CDT (6/13)
Length of Visible Light 15h 43m
Length of Day
14h 41m
Waxing Gibbous, 85% of the Moon is Illuminated
Jun 13
Waxing Gibbous
Jun 17
Full
Jun 25
Last Quarter
Jul 2
New
Jul 9
First Quarter

Hourly Weather History & Observations

Time (CDT) Temp. Dew Point Humidity Pressure Visibility Wind Dir Wind Speed Gust Speed Precip Events Conditions
12:53 AM 54.0 °F 52.0 °F 93% 30.07 in 10.0 mi Calm Calm - N/A   Clear
1:53 AM 54.0 °F 52.0 °F 93% 30.06 in 10.0 mi Calm Calm - N/A   Clear
2:53 AM 52.0 °F 51.1 °F 97% 30.07 in 10.0 mi Calm Calm - N/A   Clear
3:53 AM 51.1 °F 50.0 °F 96% 30.07 in 10.0 mi Calm Calm - N/A   Clear
4:53 AM 50.0 °F 48.9 °F 96% 30.08 in 6.0 mi Calm Calm - N/A   Clear
5:53 AM 50.0 °F 48.9 °F 96% 30.09 in 5.0 mi Calm Calm - N/A Fog Clear
6:53 AM 52.0 °F 51.1 °F 97% 30.12 in 10.0 mi SW 3.5 mph - N/A   Clear
7:53 AM 57.9 °F 53.1 °F 84% 30.14 in 10.0 mi SSW 4.6 mph - N/A   Clear
8:53 AM 63.0 °F 53.1 °F 70% 30.15 in 10.0 mi NNW 5.8 mph - N/A   Clear
9:53 AM 68.0 °F 51.1 °F 55% 30.16 in 10.0 mi NW 4.6 mph - N/A   Clear
10:53 AM 70.0 °F 48.0 °F 46% 30.17 in 10.0 mi NNW 4.6 mph - N/A   Clear
11:53 AM 72.0 °F 48.9 °F 44% 30.17 in 10.0 mi Variable 3.5 mph - N/A   Clear
12:53 PM 73.0 °F 50.0 °F 44% 30.16 in 10.0 mi SSW 8.1 mph - N/A   Clear
1:53 PM 75.9 °F 48.0 °F 37% 30.14 in 10.0 mi Calm Calm - N/A   Clear
2:53 PM 77.0 °F 48.9 °F 37% 30.12 in 10.0 mi Variable 4.6 mph - N/A   Clear
3:53 PM 75.9 °F 52.0 °F 43% 30.11 in 10.0 mi SSW 5.8 mph - N/A   Clear
4:53 PM 77.0 °F 51.1 °F 40% 30.09 in 10.0 mi Variable 3.5 mph - N/A   Clear
5:53 PM 77.0 °F 51.1 °F 40% 30.08 in 10.0 mi Calm Calm - N/A   Clear
6:53 PM 75.0 °F 52.0 °F 44% 30.06 in 10.0 mi Variable 4.6 mph - N/A   Mostly Cloudy
7:53 PM 71.1 °F 51.1 °F 49% 30.06 in 10.0 mi Variable 3.5 mph - N/A   Clear
8:53 PM 66.9 °F 51.1 °F 57% 30.06 in 10.0 mi SSE 4.6 mph - N/A   Clear
9:53 PM 66.0 °F 52.0 °F 60% 30.06 in 10.0 mi SSE 6.9 mph - N/A   Scattered Clouds
10:53 PM 64.0 °F 52.0 °F 65% 30.07 in 10.0 mi SSE 5.8 mph - N/A   Clear
11:53 PM 64.9 °F 50.0 °F 58% 30.07 in 10.0 mi SE 5.8 mph - N/A   Scattered Clouds